TimeCST,TemperatureF,Dew PointF,Humidity,Sea Level PressureIn,VisibilityMPH,Wind Direction,Wind SpeedMPH,Gust SpeedMPH,PrecipitationIn,Events,Conditions,WindDirDegrees,DateUTC
12:52 AM,42.1,30.0,62,30.30,10.0,South,8.1,-,N/A,,Clear,170,2012-11-17 06:52:00
1:52 AM,41.0,30.0,65,30.29,10.0,SSE,8.1,-,N/A,,Clear,160,2012-11-17 07:52:00
2:52 AM,39.0,30.0,70,30.29,10.0,South,8.1,-,N/A,,Clear,170,2012-11-17 08:52:00
3:52 AM,37.9,30.0,73,30.28,10.0,SSE,6.9,-,N/A,,Clear,150,2012-11-17 09:52:00
4:52 AM,39.9,30.9,70,30.27,10.0,SSE,9.2,-,N/A,,Clear,160,2012-11-17 10:52:00
5:52 AM,41.0,30.9,67,30.28,10.0,South,9.2,-,N/A,,Clear,170,2012-11-17 11:52:00
6:52 AM,39.9,30.9,70,30.28,10.0,SSE,10.4,-,N/A,,Clear,160,2012-11-17 12:52:00
7:52 AM,39.9,30.9,70,30.28,10.0,SSE,6.9,-,N/A,,Clear,150,2012-11-17 13:52:00
8:52 AM,48.9,30.9,50,30.28,10.0,South,17.3,-,N/A,,Clear,180,2012-11-17 14:52:00
10:52 AM,55.9,30.0,37,30.27,10.0,SSW,24.2,34.5,N/A,,Clear,200,2012-11-17 16:52:00
11:52 AM,60.1,32.0,35,30.25,10.0,South,20.7,28.8,N/A,,Clear,180,2012-11-17 17:52:00
12:52 PM,61.0,32.0,34,30.20,10.0,South,26.5,33.4,N/A,,Clear,180,2012-11-17 18:52:00
1:52 PM,62.1,32.0,32,30.17,10.0,South,27.6,35.7,N/A,,Clear,170,2012-11-17 19:52:00
2:52 PM,62.1,32.0,32,30.16,10.0,South,27.6,34.5,N/A,,Clear,170,2012-11-17 20:52:00
3:52 PM,61.0,30.9,32,30.16,10.0,South,24.2,31.1,N/A,,Clear,170,2012-11-17 21:52:00
4:52 PM,57.9,30.9,36,30.16,10.0,South,19.6,-,N/A,,Clear,170,2012-11-17 22:52:00
5:52 PM,54.0,30.9,41,30.17,10.0,SSE,12.7,-,N/A,,Clear,160,2012-11-17 23:52:00
6:52 PM,50.0,30.9,48,30.19,10.0,SSE,10.4,-,N/A,,Clear,150,2012-11-18 00:52:00
7:52 PM,46.9,30.9,54,30.20,10.0,SE,10.4,-,N/A,,Clear,140,2012-11-18 01:52:00
8:52 PM,46.0,30.9,56,30.19,10.0,SSE,10.4,-,N/A,,Clear,150,2012-11-18 02:52:00
9:52 PM,45.0,30.0,56,30.20,10.0,SSE,10.4,-,N/A,,Clear,150,2012-11-18 03:52:00
10:52 PM,45.0,28.9,53,30.19,10.0,SSE,11.5,-,N/A,,Clear,160,2012-11-18 04:52:00
11:52 PM,45.0,28.9,53,30.19,10.0,SSE,11.5,-,N/A,,Clear,160,2012-11-18 05:52:00